Location: Dilsberg
(49.3983°N, 8.8354°E)
Time: 00:48:59
(UTC+00:00)

Cosmos 839 Rocket - Pass Details

Date: 19 May 2025
Orbit: 962 x 2090 km, 65.9° (Epoch: 15 June)

Event Time Altitude Azimuth Distance (km) Brightness Sun altitude
Rises 19:37:17 0° 221° (SW) 3,645 7.0 -4.8°
Reaches altitude 10° 19:39:42 10° 223° (SW) 2,731 6.4 -5.1°
Maximum altitude 19:45:58 77° 310° (NW) 1,100 4.5 -5.9°
Drops below altitude 10° 19:53:26 10° 37° (NE) 3,229 6.8 -6.8°
Sets 19:56:31 0° 39° (NE) 4,356 7.4 -7.1°
